EA1DB-1 Weather Reports


Display with metric or nautical units.
time (UTC)temp
F
wind
direction
speed
MPH
gust
MPH
rain 1hr
in
rain 24hr
in
rain mn
in
humidity
%
barometer
mb
20260508122128 59 292 4.0 6.0 0.00 0.00 0.00 63 1005.2
20260508121107 58 270 3.0 6.0 0.00 0.00 0.00 67 1005.2
20260508120127 57 270 2.0 4.0 0.00 0.00 0.00 67 1004.9
20260508115107 57 135 0.0 2.0 0.00 0.00 0.00 66 1005.2
20260508114127 57 225 4.0 6.0 0.00 0.00 0.00 64 1005.3
20260508113107 58 90 3.0 9.0 0.00 0.00 0.00 64 1005.3
20260508112127 60 270 9.0 19.0 0.00 0.00 0.00 63 1005.2
20260508111107 59 225 3.0 8.0 0.00 0.00 0.00 62 1005.1
20260508110127 60 315 9.0 13.0 0.00 0.00 0.00 61 1005.2
20260508105127 60 157 2.0 5.0 0.00 0.00 0.00 58 1005.2
20260508104127 60 180 3.0 5.0 0.00 0.00 0.00 58 1005.0
20260508103107 61 292 2.0 5.0 0.00 0.00 0.00 59 1004.9
20260508102127 60 202 4.0 6.0 0.00 0.00 0.00 58 1004.9
20260508101107 61 270 3.0 7.0 0.00 0.00 0.00 56 1004.7
20260508100128 61 315 5.0 9.0 0.00 0.00 0.00 54 1004.7
20260508095127 61 270 3.0 6.0 0.00 0.00 0.00 55 1004.6
20260508094127 61 180 6.0 9.0 0.00 0.00 0.00 58 1004.6
20260508093107 60 157 2.0 4.0 0.00 0.00 0.00 59 1004.6
20260508091907 60 247 1.0 3.0 0.00 0.00 0.00 64 1004.7
20260508091105 59 135 1.0 3.0 0.00 0.00 0.00 64 1004.6
20260508090126 59 315 3.0 4.0 0.00 0.00 0.00 66 1004.7
20260508085104 59 135 0.0 3.0 0.00 0.00 0.00 69 1004.7
20260508084126 58 270 1.0 3.0 0.00 0.00 0.00 74 1004.6
20260508083104 57 225 0.0 2.0 0.00 0.00 0.00 74 1004.6
20260508082126 57 135 0.0 1.0 0.00 0.00 0.00 74 1004.4
20260508081104 57 0.0 1.0 0.00 0.00 0.00 76 1004.2
20260508080126 56 112 0.0 1.0 0.00 0.00 0.00 76 1004.4
20260508075150 56 0.0 0.0 0.00 0.00 0.00 77 1004.2
20260508074126 56 0.0 0.0 0.00 0.00 0.00 77 1004.1
20260508073104 56 135 0.0 2.0 0.00 0.00 0.00 78 1004.4
20260508072126 56 0.0 0.0 0.00 0.00 0.00 78 1004.4
20260508071124 55 0.0 0.0 0.00 0.00 0.00 78 1004.3
20260508070126 55 90 0.0 2.0 0.00 0.00 0.00 78 1004.1
20260508065104 55 0.0 0.0 0.00 0.00 0.00 78 1004.1
20260508064127 55 90 1.0 4.0 0.00 0.00 0.00 78 1004.2
20260508063105 55 135 1.0 3.0 0.00 0.00 0.00 78 1004.1
20260508062146 55 90 3.0 6.0 0.00 0.00 0.00 78 1004.2
20260508061105 55 0.0 0.0 0.00 0.00 0.00 78 1004.0
20260508060126 55 270 0.0 2.0 0.00 0.00 0.00 80 1003.9
20260508055125 55 0.0 0.0 0.00 0.00 0.00 80 1004.0
20260508054126 55 0.0 0.0 0.00 0.00 0.00 80 1004.0
20260508053150 54 0.0 0.0 0.00 0.00 0.00 80 1004.4
20260508052126 55 135 0.0 1.0 0.00 0.00 0.00 80 1004.3
20260508051105 55 135 0.0 2.0 0.00 0.00 0.00 80 1004.0
20260508050126 55 135 1.0 3.0 0.00 0.00 0.00 81 1004.0
20260508045105 54 90 1.0 3.0 0.00 0.00 0.00 81 1003.7
20260508044126 54 0.0 0.0 0.00 0.00 0.00 81 1003.7
20260508043105 55 0.0 0.0 0.00 0.00 0.00 81 1003.9
20260508042126 55 0.0 0.0 0.00 0.00 0.00 81 1003.8
20260508041105 55 90 1.0 3.0 0.00 0.00 0.00 81 1003.8
20260508040126 55 0.0 1.0 0.00 0.00 0.00 80 1003.7
20260508035105 55 0.0 0.0 0.00 0.00 0.00 79 1004.1
20260508034126 55 135 0.0 1.0 0.00 0.00 0.00 79 1004.4
20260508033105 55 90 0.0 2.0 0.00 0.00 0.00 79 1004.3
20260508032126 55 0.0 1.0 0.00 0.00 0.00 80 1004.5
20260508031105 55 0.0 0.0 0.00 0.00 0.00 80 1004.5
20260508030128 55 135 0.0 2.0 0.00 0.00 0.00 79 1004.6
20260508025107 55 0.0 2.0 0.00 0.00 0.00 78 1004.6
20260508024128 55 0.0 0.0 0.00 0.00 0.00 79 1004.6
20260508023212 55 135 0.0 1.0 0.00 0.00 0.00 79 1004.4
20260508022042 55 0.0 0.0 0.00 0.00 0.00 79 1004.6
20260508021106 55 0.0 0.0 0.00 0.00 0.00 79 1004.7
20260508020146 55 0.0 0.0 0.00 0.00 0.00 79 1004.9
20260508015151 55 0.0 1.0 0.00 0.00 0.00 79 1005.1
20260508014126 55 0.0 0.0 0.00 0.00 0.00 79 1004.9
20260508013107 55 0.0 0.0 0.00 0.00 0.00 79 1004.9
20260508012128 56 0.0 1.0 0.00 0.00 0.00 79 1005.1
20260508011212 56 0.0 0.0 0.00 0.00 0.00 78 1005.1
20260508010126 56 0.0 0.0 0.00 0.00 0.00 78 1005.3
20260508005105 56 0.0 0.0 0.00 0.00 0.00 78 1005.3
20260508004146 56 112 0.0 2.0 0.00 0.00 0.00 78 1005.6
20260508003150 56 0.0 1.0 0.00 0.00 0.00 79 1005.5
20260508002142 56 135 1.0 2.0 0.00 0.00 0.00 79 1005.8
20260508001152 56 135 0.0 2.0 0.00 0.00 0.00 79 1005.7
20260508000128 56 0.0 0.0 0.00 0.00 0.00 79 1006.0
20260507235105 56 0.0 1.0 0.00 0.00 0.00 79 1006.1
20260507234207 56 0.0 1.0 0.00 0.00 0.00 79 1006.1
20260507233109 56 112 0.0 1.0 0.00 0.00 0.00 79 1006.2
20260507232127 56 135 1.0 3.0 0.00 0.00 0.00 79 1006.2
20260507231105 57 0.0 1.0 0.00 0.00 0.00 79 1006.3
20260507230126 57 0.0 0.0 0.00 0.00 0.00 78 1006.5
20260507225104 57 90 1.0 3.0 0.00 0.00 0.00 78 1006.3
20260507224126 57 90 1.0 2.0 0.00 0.00 0.00 77 1006.3
20260507223124 57 0.0 0.0 0.00 0.00 0.00 77 1006.4
20260507222126 57 0.0 0.0 0.00 0.00 0.00 77 1006.5
20260507221104 57 315 2.0 3.0 0.00 0.00 0.00 77 1006.4
20260507220127 58 270 3.0 6.0 0.00 0.00 0.00 77 1006.4
20260507215105 58 247 2.0 3.0 0.00 0.00 0.00 77 1006.8
20260507214129 58 0.0 0.0 0.00 0.00 0.00 77 1006.6
20260507213125 58 0.0 0.0 0.00 0.00 0.00 77 1006.8
20260507212126 58 0.0 0.0 0.00 0.00 0.00 77 1006.5
20260507211104 58 0.0 0.0 0.00 0.00 0.00 77 1006.7
20260507210126 58 270 3.0 6.0 0.00 0.00 0.00 77 1006.7
20260507205105 58 225 3.0 3.0 0.00 0.00 0.00 77 1006.7
20260507204126 58 270 1.0 3.0 0.00 0.00 0.00 77 1006.5
20260507203104 58 0.0 0.0 0.00 0.00 0.00 77 1006.5
20260507202146 58 270 1.0 3.0 0.00 0.00 0.00 77 1006.4
20260507201104 58 225 6.0 8.0 0.00 0.00 0.00 77 1006.3
20260507200126 59 270 2.0 3.0 0.00 0.00 0.00 76 1006.1
20260507195104 59 270 3.0 5.0 0.00 0.00 0.00 76 1006.1
20260507194126 59 270 3.0 5.0 0.00 0.00 0.00 76 1005.8
20260507193104 59 270 6.0 9.0 0.00 0.00 0.00 76 1005.9
20260507192127 59 270 3.0 5.0 0.00 0.00 0.00 76 1005.8
20260507191105 59 315 4.0 6.0 0.00 0.00 0.00 76 1005.7
20260507190126 59 315 5.0 8.0 0.00 0.00 0.00 76 1005.4
20260507185104 59 270 3.0 6.0 0.00 0.00 0.00 76 1005.3
20260507184127 60 225 3.0 6.0 0.00 0.00 0.00 75 1005.3
20260507183105 60 315 3.0 7.0 0.00 0.00 0.00 74 1005.1
20260507182126 60 315 4.0 9.0 0.00 0.00 0.00 73 1005.5
20260507181104 60 315 3.0 5.0 0.00 0.00 0.00 72 1005.2
20260507180126 61 292 4.0 7.0 0.00 0.00 0.00 71 1005.3
20260507175104 61 225 6.0 11.0 0.00 0.00 0.00 69 1005.2
20260507174126 61 315 5.0 7.0 0.00 0.00 0.00 67 1005.2
20260507173104 61 270 6.0 9.0 0.00 0.00 0.00 65 1005.2
20260507172146 61 315 4.0 8.0 0.00 0.00 0.00 64 1005.3
20260507171104 61 247 4.0 6.0 0.00 0.00 0.00 63 1005.2
20260507170126 61 315 6.0 9.0 0.00 0.00 0.00 63 1005.3
20260507165108 61 315 6.0 9.0 0.00 0.00 0.00 62 1005.3
20260507164126 63 270 8.0 11.0 0.00 0.00 0.00 58 1005.3
20260507163104 64 270 8.0 11.0 0.00 0.00 0.00 55 1005.1
20260507162126 64 315 6.0 9.0 0.00 0.00 0.00 56 1005.1
20260507161104 64 315 6.0 11.0 0.00 0.00 0.00 57 1005.2
20260507160126 64 292 2.0 3.0 0.00 0.00 0.00 56 1005.0
20260507155124 65 180 5.0 10.0 0.00 0.00 0.00 58 1005.0
20260507154126 64 315 5.0 9.0 0.00 0.00 0.00 56 1005.1
20260507153105 65 180 0.0 3.0 0.00 0.00 0.00 57 1005.0
20260507152126 65 270 1.0 3.0 0.00 0.00 0.00 60 1005.0
20260507151104 64 135 0.0 1.0 0.00 0.00 0.00 61 1005.3
20260507150126 64 270 6.0 12.0 0.00 0.00 0.00 58 1005.2
20260507145105 64 315 6.0 9.0 0.00 0.00 0.00 57 1005.4
20260507144126 66 315 1.0 4.0 0.00 0.00 0.00 57 1005.5
20260507143124 64 0.0 3.0 0.00 0.00 0.00 59 1005.5
20260507142126 64 315 1.0 3.0 0.00 0.00 0.00 58 1005.4
20260507141105 64 270 4.0 6.0 0.00 0.00 0.00 58 1005.6
20260507140126 65 180 3.0 6.0 0.00 0.00 0.00 59 1005.5
20260507135104 65 315 11.0 15.0 0.00 0.00 0.00 57 1005.5
20260507134126 65 225 2.0 4.0 0.00 0.00 0.00 57 1005.4
20260507133104 64 270 7.0 9.0 0.00 0.00 0.00 55 1005.5
20260507132126 65 270 4.0 7.0 0.00 0.00 0.00 56 1005.4
20260507131105 65 315 1.0 7.0 0.00 0.00 0.00 56 1005.7
20260507130126 64 0 1.0 4.0 0.00 0.00 0.00 55 1005.6
20260507125105 64 315 5.0 7.0 0.00 0.00 0.00 52 1005.6
20260507124128 64 270 8.0 9.0 0.00 0.00 0.00 54 1005.7
20260507123111 63 225 3.0 5.0 0.00 0.00 0.00 55 1005.9